Location: *
(28.3744°N, 81.5492°W)
Time: 15:18:28
(UTC+00:00)

Helios 1B rocket - Pass Details

Date: 15 June 2025
Orbit: 494 x 502 km, 98.2° (Epoch: 15 July)

Event Time Altitude Azimuth Distance (km) Brightness Sun altitude
Exits shadow 02:31:17 32° 237° (WSW) 874 3.4 -23.2°
Maximum altitude 02:31:55 35° 261° (W) 829 3.4 -23.3°
Drops below altitude 10° 02:35:18 10° 328° (NNW) 1,712 5.9 -23.8°
Sets 02:37:31 0° 337° (NNW) 2,601 6.9 -24.2°
